Location: Grisols
(45.0093°N, 3.1167°E)
Time: 16:26:15
(UTC+00:00)

Cosmos 2123 Rocket - Pass Details

Date: 21 October 2019
Orbit: 960 x 993 km, 82.9° (Epoch: 11 November)

Event Time Altitude Azimuth Distance (km) Brightness Sun altitude
Rises 19:16:06 0° 179° (S) 3,687 6.9 -25.9°
Reaches altitude 10° 19:18:37 10° 177° (S) 2,740 6.2 -26.3°
Enters shadow 19:19:59 17° 176° (S) 2,244 5.7 -26.6°
Exits shadow 19:24:47 72° 102° (ESE) 1,033 3.8 -27.4°
Maximum altitude 19:24:53 72° 95° (E) 1,032 3.8 -27.4°
Drops below altitude 10° 19:31:07 10° 12° (NNE) 2,737 6.3 -28.5°
Sets 19:33:38 0° 11° (N) 3,684 7.1 -28.9°
